Time,TemperatureF,DewpointF,PressureIn,WindDirection,WindDirectionDegrees,WindSpeedMPH,WindSpeedGustMPH,Humidity,HourlyPrecipIn,Conditions,Clouds,dailyrainin,SoftwareType,DateUTC
2013-07-29 00:02:00,57.0,55.0,30.14,North,0,0.0,-999.0,93,-99.99,,,-99.99,,2013-07-29 05:02:00,
2013-07-29 00:12:00,57.0,55.0,30.14,North,0,0.0,-999.0,93,-99.99,,,-99.99,,2013-07-29 05:12:00,
2013-07-29 00:22:00,57.0,55.0,30.14,North,0,0.0,-999.0,93,-99.99,,,-99.99,,2013-07-29 05:22:00,
2013-07-29 00:32:00,57.0,55.0,30.14,North,0,0.0,-999.0,93,-99.99,,,-99.99,,2013-07-29 05:32:00,
2013-07-29 00:42:00,57.0,55.0,30.14,North,0,0.0,-999.0,93,-99.99,,,-99.99,,2013-07-29 05:42:00,
2013-07-29 00:53:00,55.0,54.0,30.14,North,0,0.0,-999.0,93,-99.99,,,-99.99,,2013-07-29 05:53:00,
2013-07-29 01:02:00,55.0,54.0,30.14,North,0,0.0,-999.0,93,-99.99,,,-99.99,,2013-07-29 06:02:00,
2013-07-29 01:12:00,55.0,54.0,30.14,North,0,0.0,-999.0,93,-99.99,,,-99.99,,2013-07-29 06:12:00,
2013-07-29 01:22:00,55.0,55.0,30.13,North,0,0.0,-999.0,100,-99.99,,,-99.99,,2013-07-29 06:22:00,
2013-07-29 01:32:00,55.0,54.0,30.13,North,0,0.0,-999.0,93,-99.99,,,-99.99,,2013-07-29 06:32:00,
2013-07-29 01:43:00,55.0,54.0,30.13,North,0,0.0,-999.0,93,-99.99,,,-99.99,,2013-07-29 06:43:00,
2013-07-29 01:52:00,55.0,54.0,30.13,North,0,0.0,-999.0,93,-99.99,,,-99.99,,2013-07-29 06:52:00,
2013-07-29 02:02:00,55.0,54.0,30.13,North,0,0.0,-999.0,93,-99.99,,,-99.99,,2013-07-29 07:02:00,
2013-07-29 02:12:00,54.0,54.0,30.12,North,0,0.0,-999.0,100,-99.99,,,-99.99,,2013-07-29 07:12:00,
2013-07-29 02:22:00,54.0,54.0,30.12,North,0,0.0,-999.0,100,-99.99,,,-99.99,,2013-07-29 07:22:00,
2013-07-29 02:33:00,54.0,54.0,30.13,North,0,0.0,-999.0,100,-99.99,,,-99.99,,2013-07-29 07:33:00,
2013-07-29 02:43:00,54.0,54.0,30.13,North,0,0.0,-999.0,100,-99.99,,,-99.99,,2013-07-29 07:43:00,
2013-07-29 02:53:00,54.0,54.0,30.13,North,0,0.0,-999.0,100,-99.99,,,-99.99,,2013-07-29 07:53:00,
2013-07-29 03:02:00,54.0,54.0,30.12,North,0,0.0,-999.0,100,-99.99,,,-99.99,,2013-07-29 08:02:00,
2013-07-29 03:12:00,54.0,54.0,30.13,North,0,0.0,-999.0,100,-99.99,,,-99.99,,2013-07-29 08:12:00,
2013-07-29 03:22:00,54.0,54.0,30.13,North,0,0.0,-999.0,100,-99.99,,,-99.99,,2013-07-29 08:22:00,
2013-07-29 03:33:00,52.0,52.0,30.13,North,0,0.0,-999.0,100,-99.99,,,-99.99,,2013-07-29 08:33:00,
2013-07-29 03:42:00,52.0,52.0,30.13,North,0,0.0,-999.0,100,-99.99,,,-99.99,,2013-07-29 08:42:00,
2013-07-29 03:52:00,52.0,52.0,30.13,North,0,0.0,-999.0,100,-99.99,,,-99.99,,2013-07-29 08:52:00,
2013-07-29 04:02:00,52.0,52.0,30.14,North,0,0.0,-999.0,100,-99.99,,,-99.99,,2013-07-29 09:02:00,
2013-07-29 04:12:00,52.0,52.0,30.13,North,0,0.0,-999.0,100,-99.99,,,-99.99,,2013-07-29 09:12:00,
2013-07-29 04:22:00,52.0,50.0,30.13,North,0,0.0,-999.0,93,-99.99,,,-99.99,,2013-07-29 09:22:00,
2013-07-29 04:33:00,52.0,50.0,30.12,North,0,0.0,-999.0,93,-99.99,,,-99.99,,2013-07-29 09:33:00,
2013-07-29 04:43:00,52.0,50.0,30.12,North,0,0.0,-999.0,93,-99.99,,,-99.99,,2013-07-29 09:43:00,
2013-07-29 04:53:00,52.0,50.0,30.12,North,0,0.0,-999.0,93,-99.99,,,-99.99,,2013-07-29 09:53:00,
2013-07-29 05:02:00,50.0,50.0,30.11,North,0,0.0,-999.0,100,-99.99,,,-99.99,,2013-07-29 10:02:00,
2013-07-29 05:13:00,52.0,50.0,30.11,North,0,0.0,-999.0,93,-99.99,,,-99.99,,2013-07-29 10:13:00,
2013-07-29 05:23:00,50.0,50.0,30.11,North,0,0.0,-999.0,100,-99.99,,,-99.99,,2013-07-29 10:23:00,
2013-07-29 05:35:00,50.0,50.0,30.11,North,0,0.0,-999.0,100,-99.99,,,-99.99,,2013-07-29 10:35:00,
2013-07-29 05:53:00,50.0,50.0,30.11,North,0,0.0,-999.0,100,-99.99,,,-99.99,,2013-07-29 10:53:00,
2013-07-29 06:03:00,50.0,50.0,30.11,North,0,0.0,-999.0,100,-99.99,,,-99.99,,2013-07-29 11:03:00,
2013-07-29 06:15:00,50.0,50.0,30.12,North,0,0.0,-999.0,100,-99.99,,,-99.99,,2013-07-29 11:15:00,
2013-07-29 06:22:00,50.0,50.0,30.12,North,0,0.0,-999.0,100,-99.99,,,-99.99,,2013-07-29 11:22:00,
2013-07-29 06:34:00,50.0,50.0,30.13,North,0,0.0,-999.0,100,-99.99,,,-99.99,,2013-07-29 11:34:00,
2013-07-29 06:44:00,50.0,50.0,30.13,North,0,0.0,-999.0,100,-99.99,,,-99.99,,2013-07-29 11:44:00,
2013-07-29 06:54:00,50.0,50.0,30.13,North,0,0.0,-999.0,100,-99.99,,,-99.99,,2013-07-29 11:54:00,
2013-07-29 07:06:00,50.0,50.0,30.13,North,0,0.0,-999.0,100,-99.99,,,-99.99,,2013-07-29 12:06:00,
2013-07-29 07:13:00,52.0,50.0,30.14,North,0,0.0,-999.0,93,-99.99,,,-99.99,,2013-07-29 12:13:00,
2013-07-29 07:25:00,52.0,50.0,30.14,North,0,0.0,-999.0,93,-99.99,,,-99.99,,2013-07-29 12:25:00,
2013-07-29 07:35:00,52.0,50.0,30.14,North,0,0.0,-999.0,93,-99.99,,,-99.99,,2013-07-29 12:35:00,
2013-07-29 07:44:00,52.0,50.0,30.14,North,0,0.0,-999.0,93,-99.99,,,-99.99,,2013-07-29 12:44:00,
2013-07-29 07:54:00,52.0,52.0,30.14,North,0,0.0,-999.0,100,-99.99,,,-99.99,,2013-07-29 12:54:00,
2013-07-29 08:03:00,54.0,54.0,30.14,North,0,3.0,-999.0,100,-99.99,,,-99.99,,2013-07-29 13:03:00,
2013-07-29 08:25:00,54.0,54.0,30.14,North,0,0.0,-999.0,100,-99.99,,,-99.99,,2013-07-29 13:25:00,
2013-07-29 08:35:00,55.0,54.0,30.14,North,0,0.0,-999.0,93,-99.99,,,-99.99,,2013-07-29 13:35:00,
2013-07-29 08:43:00,55.0,55.0,30.14,North,0,0.0,-999.0,100,-99.99,,,-99.99,,2013-07-29 13:43:00,
2013-07-29 08:54:00,57.0,55.0,30.15,North,0,0.0,-999.0,93,-99.99,,,-99.99,,2013-07-29 13:54:00,
2013-07-29 09:03:00,57.0,55.0,30.15,North,0,5.0,-999.0,93,-99.99,,,-99.99,,2013-07-29 14:03:00,
2013-07-29 09:12:00,57.0,55.0,30.15,North,0,0.0,-999.0,93,-99.99,,,-99.99,,2013-07-29 14:12:00,
2013-07-29 09:25:00,59.0,57.0,30.15,SSE,154,8.0,-999.0,93,-99.99,,,-99.99,,2013-07-29 14:25:00,
2013-07-29 09:33:00,61.0,57.0,30.15,North,0,6.0,-999.0,87,-99.99,,,-99.99,,2013-07-29 14:33:00,
2013-07-29 09:43:00,63.0,57.0,30.15,SE,135,3.0,-999.0,82,-99.99,,,-99.99,,2013-07-29 14:43:00,
2013-07-29 09:54:00,63.0,57.0,30.15,North,0,0.0,-999.0,82,-99.99,,,-99.99,,2013-07-29 14:54:00,
2013-07-29 10:13:00,64.0,59.0,30.14,SSW,204,5.0,-999.0,82,-99.99,,,-99.99,,2013-07-29 15:13:00,
2013-07-29 10:24:00,66.0,59.0,30.14,North,0,0.0,-999.0,77,-99.99,,,-99.99,,2013-07-29 15:24:00,
2013-07-29 10:36:00,66.0,57.0,30.14,SE,135,5.0,-999.0,72,-99.99,,,-99.99,,2013-07-29 15:36:00,
2013-07-29 10:44:00,66.0,57.0,30.14,ESE,114,6.0,-999.0,72,-99.99,,,-99.99,,2013-07-29 15:44:00,
2013-07-29 10:53:00,66.0,57.0,30.14,SSE,155,5.0,-999.0,72,-99.99,,,-99.99,,2013-07-29 15:53:00,
2013-07-29 11:04:00,66.0,57.0,30.13,East,90,8.0,-999.0,72,-99.99,,,-99.99,,2013-07-29 16:04:00,
2013-07-29 11:23:00,66.0,57.0,30.14,ESE,114,9.0,-999.0,72,-99.99,,,-99.99,,2013-07-29 16:23:00,
2013-07-29 11:36:00,66.0,57.0,30.14,North,0,5.0,-999.0,72,-99.99,,,-99.99,,2013-07-29 16:36:00,
2013-07-29 11:44:00,68.0,59.0,30.13,SSE,155,5.0,-999.0,72,-99.99,,,-99.99,,2013-07-29 16:44:00,
2013-07-29 11:54:00,66.0,57.0,30.13,ESE,115,3.0,-999.0,72,-99.99,,,-99.99,,2013-07-29 16:54:00,
2013-07-29 12:07:00,68.0,57.0,30.13,North,0,7.0,-999.0,68,-99.99,,,-99.99,,2013-07-29 17:07:00,
2013-07-29 12:13:00,68.0,57.0,30.12,SSE,155,5.0,-999.0,68,-99.99,,,-99.99,,2013-07-29 17:13:00,
2013-07-29 12:23:00,68.0,57.0,30.12,ESE,114,6.0,-999.0,68,-99.99,,,-99.99,,2013-07-29 17:23:00,
2013-07-29 12:38:00,68.0,57.0,30.13,SSE,154,7.0,-999.0,68,-99.99,,,-99.99,,2013-07-29 17:38:00,
2013-07-29 12:43:00,68.0,57.0,30.13,SSE,155,10.0,-999.0,68,-99.99,,,-99.99,,2013-07-29 17:43:00,
2013-07-29 12:55:00,68.0,57.0,30.13,SE,135,9.0,-999.0,68,-99.99,,,-99.99,,2013-07-29 17:55:00,
2013-07-29 13:05:00,68.0,57.0,30.13,SW,225,3.0,-999.0,68,-99.99,,,-99.99,,2013-07-29 18:05:00,
2013-07-29 13:13:00,70.0,57.0,30.13,SSE,155,6.0,-999.0,64,-99.99,,,-99.99,,2013-07-29 18:13:00,
2013-07-29 13:34:00,70.0,59.0,30.13,SSE,155,9.0,-999.0,68,-99.99,,,-99.99,,2013-07-29 18:34:00,
2013-07-29 14:03:00,70.0,57.0,30.12,SSE,155,6.0,-999.0,64,-99.99,,,-99.99,,2013-07-29 19:03:00,
2013-07-29 14:15:00,70.0,59.0,30.12,SSE,155,9.0,-999.0,68,-99.99,,,-99.99,,2013-07-29 19:15:00,
2013-07-29 14:25:00,72.0,61.0,30.12,East,90,13.0,-999.0,68,-99.99,,,-99.99,,2013-07-29 19:25:00,
2013-07-29 14:36:00,72.0,61.0,30.12,SSE,154,13.0,-999.0,68,-99.99,,,-99.99,,2013-07-29 19:36:00,
2013-07-29 14:44:00,72.0,61.0,30.11,North,0,5.0,-999.0,68,-99.99,,,-99.99,,2013-07-29 19:44:00,
2013-07-29 14:53:00,72.0,57.0,30.11,SE,135,6.0,-999.0,60,-99.99,,,-99.99,,2013-07-29 19:53:00,
2013-07-29 15:04:00,72.0,57.0,30.11,SE,135,5.0,-999.0,60,-99.99,,,-99.99,,2013-07-29 20:04:00,
2013-07-29 15:15:00,72.0,59.0,30.11,SW,225,7.0,-999.0,64,-99.99,,,-99.99,,2013-07-29 20:15:00,
2013-07-29 15:23:00,72.0,61.0,30.11,SW,225,3.0,-999.0,68,-99.99,,,-99.99,,2013-07-29 20:23:00,
2013-07-29 15:33:00,72.0,61.0,30.11,SSW,205,7.0,-999.0,68,-99.99,,,-99.99,,2013-07-29 20:33:00,
2013-07-29 15:46:00,70.0,59.0,30.13,SSW,204,9.0,-999.0,68,-99.99,,,-99.99,,2013-07-29 20:46:00,
2013-07-29 15:56:00,70.0,59.0,30.13,SW,225,8.0,-999.0,68,-99.99,,,-99.99,,2013-07-29 20:56:00,
2013-07-29 16:04:00,70.0,61.0,30.13,SW,225,7.0,-999.0,73,-99.99,,,-99.99,,2013-07-29 21:04:00,
2013-07-29 16:15:00,68.0,59.0,30.13,SSW,204,9.0,-999.0,72,-99.99,,,-99.99,,2013-07-29 21:15:00,
2013-07-29 16:23:00,68.0,59.0,30.13,SW,225,5.0,-999.0,72,-99.99,,,-99.99,,2013-07-29 21:23:00,
2013-07-29 16:54:00,68.0,59.0,30.13,SSE,154,3.0,-999.0,72,-99.99,,,-99.99,,2013-07-29 21:54:00,
2013-07-29 17:03:00,68.0,61.0,30.13,North,0,6.0,-999.0,77,-99.99,,,-99.99,,2013-07-29 22:03:00,
2013-07-29 17:14:00,66.0,59.0,30.12,SW,225,5.0,-999.0,77,-99.99,,,-99.99,,2013-07-29 22:14:00,
2013-07-29 17:24:00,66.0,61.0,30.12,SSW,204,5.0,-999.0,82,-99.99,,,-99.99,,2013-07-29 22:24:00,
2013-07-29 17:43:00,66.0,61.0,30.12,SSW,204,6.0,-999.0,82,-99.99,,,-99.99,,2013-07-29 22:43:00,
2013-07-29 17:55:00,66.0,61.0,30.12,SW,225,3.0,-999.0,82,-99.99,,,-99.99,,2013-07-29 22:55:00,
2013-07-29 18:04:00,66.0,61.0,30.12,North,0,0.0,-999.0,82,-99.99,,,-99.99,,2013-07-29 23:04:00,
2013-07-29 18:25:00,66.0,61.0,30.11,SSW,205,7.0,-999.0,82,-99.99,,,-99.99,,2013-07-29 23:25:00,
2013-07-29 18:34:00,66.0,61.0,30.12,North,0,5.0,-999.0,82,-99.99,,,-99.99,,2013-07-29 23:34:00,
2013-07-29 18:44:00,66.0,61.0,30.11,North,0,0.0,-999.0,82,-99.99,,,-99.99,,2013-07-29 23:44:00,
2013-07-29 18:53:00,66.0,61.0,30.11,SE,135,7.0,-999.0,82,-99.99,,,-99.99,,2013-07-29 23:53:00,
2013-07-29 19:04:00,66.0,63.0,30.11,North,0,0.0,-999.0,88,-99.99,,,-99.99,,2013-07-30 00:04:00,
2013-07-29 19:15:00,66.0,63.0,30.11,SSE,154,3.0,-999.0,88,-99.99,,,-99.99,,2013-07-30 00:15:00,
2013-07-29 19:23:00,64.0,61.0,30.11,ESE,114,5.0,-999.0,88,-99.99,,,-99.99,,2013-07-30 00:23:00,
2013-07-29 19:34:00,66.0,63.0,30.11,North,0,0.0,-999.0,88,-99.99,,,-99.99,,2013-07-30 00:34:00,
2013-07-29 19:45:00,66.0,63.0,30.11,North,0,0.0,-999.0,88,-99.99,,,-99.99,,2013-07-30 00:45:00,
2013-07-29 19:54:00,66.0,63.0,30.11,East,90,5.0,-999.0,88,-99.99,,,-99.99,,2013-07-30 00:54:00,
2013-07-29 20:05:00,66.0,63.0,30.11,North,0,0.0,-999.0,88,-99.99,,,-99.99,,2013-07-30 01:05:00,
2013-07-29 20:15:00,66.0,63.0,30.11,North,0,3.0,-999.0,88,-99.99,,,-99.99,,2013-07-30 01:15:00,
2013-07-29 20:23:00,66.0,63.0,30.11,North,0,0.0,-999.0,88,-99.99,,,-99.99,,2013-07-30 01:23:00,
2013-07-29 20:35:00,66.0,63.0,30.11,ESE,115,2.0,-999.0,88,-99.99,,,-99.99,,2013-07-30 01:35:00,
2013-07-29 20:44:00,66.0,63.0,30.11,SSE,154,7.0,-999.0,88,-99.99,,,-99.99,,2013-07-30 01:44:00,
2013-07-29 21:04:00,66.0,63.0,30.11,North,0,6.0,-999.0,88,-99.99,,,-99.99,,2013-07-30 02:04:00,
2013-07-29 21:13:00,66.0,63.0,30.11,SSE,155,1.0,-999.0,88,-99.99,,,-99.99,,2013-07-30 02:13:00,
2013-07-29 21:23:00,64.0,63.0,30.11,SSE,154,2.0,-999.0,93,-99.99,,,-99.99,,2013-07-30 02:23:00,
2013-07-29 21:34:00,64.0,63.0,30.11,SSE,155,5.0,-999.0,93,-99.99,,,-99.99,,2013-07-30 02:34:00,
2013-07-29 21:45:00,64.0,63.0,30.11,SSW,204,6.0,-999.0,93,-99.99,,,-99.99,,2013-07-30 02:45:00,
2013-07-29 21:54:00,64.0,63.0,30.12,North,0,0.0,-999.0,93,-99.99,,,-99.99,,2013-07-30 02:54:00,
2013-07-29 22:16:00,64.0,63.0,30.13,North,0,6.0,-999.0,93,-99.99,,,-99.99,,2013-07-30 03:16:00,
2013-07-29 22:24:00,64.0,63.0,30.13,North,0,0.0,-999.0,93,-99.99,,,-99.99,,2013-07-30 03:24:00,
2013-07-29 22:34:00,64.0,63.0,30.13,North,0,0.0,-999.0,93,-99.99,,,-99.99,,2013-07-30 03:34:00,
2013-07-29 22:43:00,64.0,63.0,30.13,North,0,0.0,-999.0,93,-99.99,,,-99.99,,2013-07-30 03:43:00,
2013-07-29 22:52:00,64.0,63.0,30.14,North,0,0.0,-999.0,93,-99.99,,,-99.99,,2013-07-30 03:52:00,
2013-07-29 23:03:00,64.0,63.0,30.13,SSE,154,7.0,-999.0,93,-99.99,,,-99.99,,2013-07-30 04:03:00,
2013-07-29 23:12:00,64.0,63.0,30.13,SSE,155,5.0,-999.0,93,-99.99,,,-99.99,,2013-07-30 04:12:00,
2013-07-29 23:22:00,64.0,63.0,30.14,ESE,115,3.0,-999.0,93,-99.99,,,-99.99,,2013-07-30 04:22:00,
2013-07-29 23:33:00,64.0,63.0,30.13,SE,135,6.0,-999.0,93,-99.99,,,-99.99,,2013-07-30 04:33:00,
2013-07-29 23:43:00,64.0,63.0,30.13,North,0,0.0,-999.0,93,-99.99,,,-99.99,,2013-07-30 04:43:00,
2013-07-29 23:52:00,64.0,63.0,30.13,ESE,115,3.0,-999.0,93,-99.99,,,-99.99,,2013-07-30 04:52:00,